Location: Chervonnoye
(48.6000°N, 34.4000°E)
Time: 15:26:10
(UTC+00:00)

Cosmos 44 - Pass Details

Date: 23 November 2020
Orbit: 573 x 788 km, 65.1° (Epoch: 28 January)

Event Time Altitude Azimuth Distance (km) Brightness Sun altitude
Rises 16:08:10 0° 322° (NW) 3,174 7.1 -21.6°
Reaches altitude 10° 16:10:31 10° 324° (NW) 2,276 6.3 -22.0°
Maximum altitude 16:15:46 73° 50° (NE) 810 3.4 -22.9°
Enters shadow 16:16:56 54° 115° (ESE) 940 3.6 -23.1°
